カタログに戻る

STARLINK-34005

運用中通信VLEO
NORAD 63935·PAYLOAD·🇺🇸 United States

打ち上げ May 13, 2025 から Vandenberg Space Force Base

Loading…

次のパス (今後24時間)

TLE

最新Source: CelesTrak SupGP

元期: Sep 15, 2026, 03:55 UTC

1 63935C 25098K   26258.16368056  .00062305  00000+0  21681-2 0  2581
2 63935  70.0001 155.0385 0003139 275.1136 173.1041 15.29536871    19

AllMySatでSTARLINK-34005をリアルタイム追跡

Download on the App Store